Lid_Strength_Index
8 11 13 11 10 12 14 15 16 14 13 15 15 15 12 10 12 13 13 13 12 11 9 9 5 3 2 2 2 2 2 2 1 1 1 1 2 1 1 0 0 1 -0 0
10 13 9 8 8 10 12 15 16 13 12 15 15 16 14 12 12 12 12 12 12 12 12 10 9 7 5 3 2 2 1 2 1 1 1 1 1 1 0 0 0 0 0 0
12 10 8 9 10 11 11 14 15 14 13 14 15 18 16 13 13 12 12 12 11 11 11 11 10 8 7 6 3 2 2 1 1 1 1 1 1 1 1 1 1 0 -0 0
10 8 9 10 11 10 13 10 12 13 15 20 15 23 18 15 15 14 14 13 12 12 11 11 11 10 9 8 9 6 2 1 1 1 1 2 2 3 2 1 1 0 0 0
12 10 10 11 11 9 11 9 11 12 14 16 18 21 19 15 17 15 14 13 13 13 12 11 10 10 9 8 9 11 9 4 1 1 1 1 2 2 1 2 2 1 0 0
10 8 9 9 8 8 8 10 11 12 14 20 17 19 21 17 16 15 15 14 12 12 11 11 11 10 9 8 7 8 10 8 6 3 2 1 2 2 2 2 2 2 1 4
11 11 9 8 10 9 10 13 19 20 20 21 15 17 18 15 14 14 14 13 12 12 13 13 13 12 11 10 9 6 7 8 10 9 9 8 6 6 6 5 4 4 4 5
16 17 11 9 10 13 12 12 18 23 21 19 15 19 16 12 12 12 11 12 12 13 13 14 14 14 13 13 12 11 10 10 10 12 11 11 10 9 10 10 9 9 8 7
15 15 9 9 8 9 12 15 11 15 18 20 17 15 12 11 11 11 11 11 12 13 13 14 14 15 15 15 14 14 13 12 12 11 12 12 12 12 12 11 11 10 10 8
12 16 10 9 8 8 10 9 16 15 23 23 18 18 16 13 12 11 11 12 12 13 14 14 15 14 15 15 15 14 15 15 14 14 13 13 13 12 13 13 13 12 11 11
10 13 13 10 12 13 12 14 13 13 15 19 20 18 13 12 11 11 11 11 11 12 13 14 15 15 15 15 15 16 15 15 15 15 15 15 14 14 14 14 14 12 12 11
9 12 17 14 9 9 10 12 13 17 19 16 16 17 10 10 10 11 11 11 12 13 14 14 14 14 15 16 16 16 16 16 15 14 14 15 15 15 15 14 14 13 13 13
9 14 19 16 13 10 12 11 11 12 13 16 19 18 10 9 10 10 11 12 12 13 14 14 15 16 16 16 16 17 16 16 15 15 15 15 15 15 15 14 13 12 12 12
8 13 17 19 15 13 15 13 12 13 17 16 15 15 12 10 10 10 11 12 13 13 13 14 15 16 16 16 16 16 16 16 16 16 16 16 16 15 15 14 14 14 13 13
10 18 14 13 13 13 14 13 13 14 14 16 15 14 12 10 10 10 11 11 12 13 13 14 15 16 16 16 16 16 16 15 16 16 17 17 16 15 15 15 15 15 14 14
9 16 14 18 12 13 14 12 12 12 13 14 14 13 9 8 9 11 11 11 12 13 13 14 15 16 16 16 17 17 17 17 16 16 17 17 17 17 16 16 16 16 16 15
12 13 17 21 13 15 20 15 13 12 11 12 16 12 9 10 10 10 10 11 12 13 14 15 16 16 17 17 17 18 17 17 18 17 17 17 17 18 17 17 17 17 17 17
12 16 16 21 20 25 14 11 11 12 10 10 10 10 9 9 9 9 10 11 12 13 14 15 16 17 17 17 17 17 18 18 18 19 19 18 18 18 18 18 19 18 18 18
9 14 20 21 22 18 15 13 13 13 13 10 9 9 9 9 9 10 9 9 11 12 13 15 16 16 17 17 17 17 18 18 19 19 19 19 18 19 19 19 19 18 18 18
10 10 17 21 24 25 15 13 10 10 17 11 10 10 12 11 13 10 11 12 13 14 15 16 16 16 17 17 17 17 18 19 20 20 20 19 19 19 20 19 19 18 18 18
20 20 21 21 24 18 12 12 11 18 15 12 11 10 12 12 13 14 14 15 15 15 16 16 17 17 18 17 17 19 20 21 20 20 20 20 20 20 19 19 19 19 18 18
18 21 23 22 24 23 11 12 13 12 11 12 12 11 11 14 14 15 15 15 16 17 17 17 18 19 19 18 18 20 21 21 21 21 21 21 21 20 20 20 20 19 19 19
17 13 17 15 16 11 11 11 10 10 11 11 12 11 12 14 15 16 17 16 16 17 17 17 19 20 20 20 19 20 22 21 21 22 23 23 21 20 19 20 20 21 20 20
12 11 13 14 12 10 10 10 9 10 11 11 11 11 11 14 14 15 16 16 17 17 17 19 19 20 21 21 20 21 21 22 22 23 23 22 22 22 22 20 19 20 21 21
13 12 13 13 12 11 9 10 10 11 12 12 14 13 13 13 14 14 15 17 18 19 20 19 20 21 22 22 23 24 23 23 22 22 22 22 22 22 22 20 21 19 19 19
12 12 13 13 10 11 12 14 14 13 14 14 14 16 15 14 14 15 16 17 17 19 20 21 21 21 23 23 24 24 23 22 22 22 22 22 21 22 21 21 22 18 18 17